Change the Weather History Date:

Monday, December 31, 2012

  Actual Average Record
Temperature  
Mean Temperature 9 °F -  
Max Temperature 12 °F 10 °F 33 °F (2003)
Min Temperature 6 °F 3 °F -14 °F (1999)
Degree Days  
Heating Degree Days 56    
Moisture  
Dew Point 5 °F    
Average Humidity 82    
Maximum Humidity 92    
Minimum Humidity 73    
Precipitation  
Precipitation 0.00 in - - ()
Sea Level Pressure  
Sea Level Pressure 29.41 in    
Wind  
Wind Speed 32 mph (NNE)    
Max Wind Speed 39 mph    
Max Gust Speed 46 mph    
Visibility 1 miles    
Events      
Averages and records for this station are not official NWS values.
T = Trace of Precipitation, MM = Missing Value Source: NWS Daily Summary

Daily Weather History Graph

Daily Weather History Graph

Search for Another Location

Airport or City:

Trip Planner

Search our weather history database for the weather conditions in past years. The results will help you decide how hot, cold, wet, or windy it might be!

Date:

Astronomy

Dec. 31, 2012 Rise Set
Actual Time 12:13 PM AKST 4:47 PM AKST
Civil Twilight 10:59 AM AKST 6:01 PM AKST
Nautical Twilight 9:52 AM AKST 7:08 PM AKST
Astronomical Twilight 8:53 AM AKST 8:07 PM AKST
Moon 10:13 PM AKST (12/31) 12:28 PM AKST (12/31)
Length of Visible Light 7h 02m
Length of Day
4h 34m
Waning Gibbous, 89% of the Moon is Illuminated
Dec 31
Waning Gibbous
Jan 4
Last Quarter
Jan 11
New
Jan 18
First Quarter
Jan 26
Full

Hourly Weather History & Observations

Time (AKST) Temp. Windchill Dew Point Humidity Pressure Visibility Wind Dir Wind Speed Gust Speed Precip Events Conditions
12:16 AM 10.4 °F -13.2 °F 6.8 °F 85% 29.27 in 1.0 mi North 35.7 mph 40.3 mph N/A   Overcast
12:36 AM 8.6 °F -14.5 °F 3.2 °F 79% 29.30 in 0.8 mi North 31.1 mph 36.8 mph N/A   Overcast
12:56 AM 8.6 °F -14.5 °F 1.4 °F 73% 29.30 in 1.2 mi North 31.1 mph 38.0 mph N/A   Overcast
1:16 AM 8.6 °F -15.1 °F 5.0 °F 85% 29.30 in 1.5 mi North 33.4 mph 38.0 mph N/A   Overcast
1:36 AM 8.6 °F -15.7 °F 6.8 °F 92% 29.30 in 1.5 mi North 35.7 mph - N/A   Overcast
1:56 AM 8.6 °F -15.7 °F 5.0 °F 85% 29.30 in 0.5 mi North 35.7 mph 41.4 mph N/A   Overcast
2:16 AM 8.6 °F -15.1 °F 3.2 °F 79% 29.31 in 2.5 mi North 33.4 mph 39.1 mph N/A   Overcast
2:36 AM 8.6 °F -15.1 °F 6.8 °F 92% 29.31 in 1.5 mi NNE 33.4 mph 38.0 mph N/A   Overcast
2:56 AM 10.4 °F -13.2 °F 8.6 °F 92% 29.31 in 0.8 mi NNE 35.7 mph 46.0 mph N/A   Overcast
3:16 AM - - - N/A% 29.31 in 0.8 mi NNE 39.1 mph 46.0 mph N/A   Overcast
3:36 AM 12.2 °F -11.0 °F 8.6 °F 85% 29.31 in 0.5 mi North 36.8 mph 44.9 mph N/A   Overcast
3:56 AM 8.6 °F -14.8 °F 3.2 °F 79% 29.32 in 0.5 mi North 32.2 mph 40.3 mph N/A   Overcast
4:16 AM 8.6 °F -15.1 °F 5.0 °F 85% 29.33 in 0.8 mi North 33.4 mph 41.4 mph N/A   Overcast
4:36 AM 8.6 °F -14.5 °F 5.0 °F 85% 29.35 in 1.0 mi North 31.1 mph 38.0 mph N/A   Overcast
4:56 AM 8.6 °F -14.1 °F 5.0 °F 85% 29.35 in 0.5 mi North 29.9 mph 36.8 mph N/A   Overcast
5:16 AM 10.4 °F -12.3 °F 6.8 °F 85% 29.35 in 0.8 mi North 32.2 mph 41.4 mph N/A   Overcast
5:36 AM 10.4 °F -12.3 °F 6.8 °F 85% 29.36 in 1.2 mi NNE 32.2 mph 38.0 mph N/A   Overcast
5:56 AM 8.6 °F -15.4 °F 3.2 °F 79% 29.36 in 1.0 mi North 34.5 mph 40.3 mph N/A   Overcast
6:16 AM 8.6 °F -14.5 °F 3.2 °F 79% 29.37 in 1.2 mi NNE 31.1 mph 36.8 mph N/A   Overcast
6:36 AM 8.6 °F -14.1 °F 3.2 °F 79% 29.38 in 1.2 mi NNE 29.9 mph 36.8 mph N/A   Overcast
6:56 AM 8.6 °F -14.8 °F 5.0 °F 85% 29.38 in 0.8 mi North 32.2 mph 38.0 mph N/A   Overcast
7:16 AM 8.6 °F -15.7 °F 3.2 °F 79% 29.37 in 0.8 mi NNE 35.7 mph 40.3 mph N/A   Overcast
7:36 AM 8.6 °F -14.5 °F 3.2 °F 79% 29.38 in 4.0 mi North 31.1 mph 41.4 mph N/A   Overcast
7:56 AM 8.6 °F -14.5 °F 3.2 °F 79% 29.40 in 5.0 mi NNE 31.1 mph 35.7 mph N/A   Overcast
8:16 AM 8.6 °F -14.5 °F 5.0 °F 85% 29.41 in 5.0 mi NNE 31.1 mph 35.7 mph N/A   Overcast
8:36 AM 10.4 °F -12.7 °F 5.0 °F 79% 29.41 in 3.0 mi NNE 33.4 mph 42.6 mph N/A   Overcast
8:56 AM 10.4 °F -13.5 °F 5.0 °F 79% 29.40 in 3.0 mi NNE 36.8 mph 40.3 mph N/A   Overcast
9:16 AM 8.6 °F -14.1 °F 3.2 °F 79% 29.42 in 2.5 mi North 29.9 mph - N/A   Overcast
9:36 AM 8.6 °F -14.8 °F 3.2 °F 79% 29.41 in 7.0 mi NNE 32.2 mph 38.0 mph N/A   Overcast
9:56 AM 8.6 °F -13.8 °F 3.2 °F 79% 29.42 in 1.8 mi NNE 28.8 mph 36.8 mph N/A   Overcast
10:16 AM 8.6 °F -14.1 °F 6.8 °F 92% 29.42 in 0.8 mi NNE 29.9 mph 36.8 mph N/A   Overcast
10:36 AM - - - N/A% 29.41 in 0.5 mi NNE 35.7 mph 39.1 mph N/A   Overcast
10:56 AM 10.4 °F -12.0 °F 5.0 °F 79% 29.44 in 0.5 mi North 31.1 mph 35.7 mph N/A   Overcast
11:16 AM 8.6 °F -14.1 °F 5.0 °F 85% 29.44 in 0.8 mi North 29.9 mph - N/A   Overcast
11:36 AM 8.6 °F -14.1 °F 5.0 °F 85% 29.45 in 0.5 mi NNE 29.9 mph - N/A   Overcast
11:56 AM 8.6 °F -14.5 °F 3.2 °F 79% 29.46 in 0.8 mi North 31.1 mph 35.7 mph N/A   Overcast
12:16 PM 8.6 °F -14.1 °F 3.2 °F 79% 29.46 in 0.5 mi North 29.9 mph 36.8 mph N/A   Overcast
12:36 PM 8.6 °F -14.8 °F 3.2 °F 79% 29.46 in 0.8 mi North 32.2 mph - N/A   Overcast
12:56 PM 8.6 °F -15.1 °F 3.2 °F 79% 29.46 in 0.8 mi NNE 33.4 mph - N/A   Overcast
1:16 PM 8.6 °F -14.5 °F 3.2 °F 79% 29.46 in 1.2 mi NNE 31.1 mph 35.7 mph N/A   Overcast
1:36 PM 8.6 °F -13.4 °F 3.2 °F 79% 29.47 in 1.2 mi NNE 27.6 mph 34.5 mph N/A   Overcast
1:56 PM 8.6 °F -14.1 °F 3.2 °F 79% 29.47 in 2.5 mi NNE 29.9 mph - N/A   Overcast
2:16 PM 8.6 °F -13.1 °F 3.2 °F 79% 29.48 in 3.0 mi NNE 26.5 mph 33.4 mph N/A   Overcast
2:36 PM 8.6 °F -13.8 °F 1.4 °F 73% 29.47 in 2.0 mi NNE 28.8 mph 33.4 mph N/A   Overcast
2:56 PM 8.6 °F -13.1 °F 3.2 °F 79% 29.47 in 2.5 mi North 26.5 mph - N/A   Overcast
3:16 PM 8.6 °F -13.4 °F 3.2 °F 79% 29.47 in 1.8 mi NNE 27.6 mph 31.1 mph N/A   Overcast
3:36 PM 8.6 °F -13.8 °F 3.2 °F 79% 29.46 in 1.0 mi NNE 28.8 mph - N/A   Overcast
4:16 PM 8.6 °F -14.8 °F 3.2 °F 79% 29.44 in 0.8 mi NNE 32.2 mph 36.8 mph N/A   Overcast
4:36 PM 8.6 °F -14.5 °F 3.2 °F 79% 29.45 in 1.0 mi NNE 31.1 mph 36.8 mph N/A   Overcast
4:56 PM 8.6 °F -13.1 °F 3.2 °F 79% 29.45 in 2.0 mi NNE 26.5 mph - N/A   Overcast
5:16 PM 8.6 °F -13.8 °F 3.2 °F 79% 29.46 in 2.5 mi NNE 28.8 mph 33.4 mph N/A   Overcast
5:36 PM 6.8 °F -16.6 °F 3.2 °F 85% 29.47 in 2.5 mi NNE 29.9 mph 34.5 mph N/A   Overcast
5:56 PM 8.6 °F -14.1 °F 3.2 °F 79% 29.45 in 1.2 mi NNE 29.9 mph - N/A   Overcast
6:16 PM 8.6 °F -13.4 °F 5.0 °F 85% 29.46 in 2.0 mi NNE 27.6 mph - N/A   Overcast
6:36 PM 8.6 °F -13.8 °F 3.2 °F 79% 29.47 in 1.0 mi NNE 28.8 mph 33.4 mph N/A   Overcast
6:56 PM 10.4 °F -11.4 °F 6.8 °F 85% 29.46 in 0.5 mi NNE 28.8 mph - N/A   Overcast
7:16 PM 12.2 °F -7.5 °F 10.4 °F 92% 29.47 in 0.5 mi NNE 24.2 mph 38.0 mph N/A   Overcast
7:36 PM 12.2 °F -9.9 °F 8.6 °F 85% 29.47 in 0.2 mi NE 32.2 mph 38.0 mph N/A   Overcast
7:56 PM 12.2 °F -9.6 °F 6.8 °F 79% 29.47 in 0.5 mi NNE 31.1 mph 41.4 mph N/A   Overcast
8:16 PM 12.2 °F -10.5 °F 8.6 °F 85% 29.47 in 0.5 mi NNE 34.5 mph - N/A   Overcast
8:36 PM 12.2 °F -9.3 °F 8.6 °F 85% 29.48 in 0.8 mi NNE 29.9 mph - N/A   Overcast
8:56 PM 12.2 °F -9.9 °F 8.6 °F 85% 29.48 in 0.8 mi NNE 32.2 mph 36.8 mph N/A   Overcast
9:16 PM 12.2 °F -10.5 °F 6.8 °F 79% 29.46 in 0.8 mi NE 34.5 mph - N/A   Overcast
9:36 PM 12.2 °F -9.6 °F 6.8 °F 79% 29.47 in 1.0 mi NE 31.1 mph 35.7 mph N/A   Overcast
9:56 PM 12.2 °F -9.6 °F 8.6 °F 85% 29.46 in 1.0 mi NE 31.1 mph 34.5 mph N/A   Overcast
10:16 PM 12.2 °F -9.6 °F 8.6 °F 85% 29.46 in 1.5 mi NE 31.1 mph 38.0 mph N/A   Overcast
10:36 PM 12.2 °F -9.6 °F 6.8 °F 79% 29.46 in 1.2 mi NE 31.1 mph 36.8 mph N/A   Overcast
10:56 PM 12.2 °F -9.9 °F 8.6 °F 85% 29.45 in 1.0 mi NE 32.2 mph - N/A   Overcast
11:16 PM 12.2 °F -10.2 °F 8.6 °F 85% 29.46 in 1.0 mi NE 33.4 mph 40.3 mph N/A   Overcast
11:36 PM 12.2 °F -10.5 °F 6.8 °F 79% 29.46 in 0.8 mi NE 34.5 mph 39.1 mph N/A   Overcast
11:56 PM 12.2 °F -10.2 °F 6.8 °F 79% 29.46 in 0.8 mi NE 33.4 mph 40.3 mph N/A   Overcast